Search for airport 
image banner adimage banner ad
image banner ad

DAAT - Tamenghasset/Aguenar-Hadj Bey Akhamok

Located in Tamanrasset, Algeria

ICAO - DAAT, IATA - TMR

Data provided by Airmate  

General information

Coordinates: N22°48'40" E5°27'3"
Elevation is 4517 feet MSL.
 
View others Airports in Tamanghasset Province

Operational data

Open for public use
Current time UTC:
Current local time:
Weather
METAR: DAAT 290930Z 11011KT CAVOK 26/M06 Q1025
TAF: TAF DAAT 290500Z 2906/3006 07008KT CAVOK BECMG 2909/2912 14012KT PROB30 TEMPO 2910/2915 14015G25KT BECMG 2920/2923 06008KT
View NOTAMs / SUP AIP / TFR affecting this airport [VIEW]
Communications frequencies: [VIEW]

Runways:

RWY identifierQFULength (ft)Width (ft)SurfaceLDA (ft)
0222°11811148ASP
20202°11811148
0881°10335148
26261°10335148

Airport contact information

Address: Tamanrasset Algeria

Satellite view of DAAT